Location: Geroda
(50.2801°N, 9.8948°E)
Time: 07:34:16
(UTC+00:00)

Daily predictions for brighter satellites

Satellite Brightness Start Highest point End
(mag) Time Altitude Azimuth Time Altitude Azimuth Time Altitude Azimuth
MetOp-B 4.3 19:34:35 10° SSE 19:39:57 85° WSW 19:45:21 10° NNW
Cosmos 1459 Rocket 4.5 19:35:53 10° SSW 19:42:03 67° WNW 19:48:10 10° N
Cosmos 1980 Rocket 3.4 19:37:23 10° NW 19:42:40 39° WSW 19:47:53 10° S
Cosmos 2061 Rocket 4.2 19:37:26 10° SSE 19:43:30 57° E 19:49:40 10° NNE
CZ-4 R/B 2.6 19:41:28 10° SSW 19:44:51 37° W 19:48:16 10° NNW
USA 186 2.2 19:43:09 10° SE 19:45:42 36° ENE 19:48:17 10° N
Cosmos 2228 2.8 19:41:59 10° S 19:46:04 74° E 19:50:11 10° NNE
COSMOS 2406 3.6 19:41:16 10° S 19:46:41 45° ESE 19:52:07 10° NE
SL-08 R/B 3.4 19:42:56 10° NNE 19:47:41 57° E 19:52:20 10° S
Cosmos 1933 4.4 19:45:39 10° SE 19:48:46 24° E 19:51:54 10° NE
Cosmos 1743 3.6 19:46:16 10° NNW 19:49:05 36° W 19:51:53 10° SSW
ISS -3.5 19:46:27 10° W 19:49:48 72° N 19:53:09 10° ENE
Cosmos 1461 3.2 19:47:14 10° S 19:50:36 34° ESE 19:53:57 10° NE
Cosmos 1455 Rocket 3.5 19:46:30 10° SSW 19:50:52 66° WNW 19:55:14 10° N
Cosmos 1992 Rocket 4.0 19:45:52 10° S 19:50:58 61° ESE 19:56:07 10° NNE
Cosmos 1892 Rocket 4.4 19:47:05 10° NNW 19:51:17 51° W 19:55:26 10° S
SKYMED 3 4.3 19:47:36 10° NNE 19:51:35 75° ESE 19:55:32 10° S
Cosmos 1802 Rocket 4.3 19:45:42 10° SSW 19:51:51 74° WNW 19:58:01 10° N
Terra 2.3 19:48:15 10° S 19:52:53 62° WSW 19:57:34 10° NNW
Okean O Rocket 1.6 19:53:11 10° SSE 19:57:28 74° ENE 20:01:46 10° N
Cosmos 2333 Rocket 2.4 19:53:15 10° NNW 19:58:56 67° ENE 20:04:29 11° SE
NOSS 3-3 (A) 3.7 19:59:22 10° SW 20:04:34 85° SE 20:10:55 10° NE
Cosmos 1544 Rocket 3.8 20:00:27 10° S 20:04:38 50° E 20:08:49 10° NNE
Cosmos 1437 Rocket 3.0 20:03:45 10° SSE 20:07:05 40° E 20:10:29 10° NNE
Cosmos 2360 Rocket 2.7 20:03:24 10° NNW 20:08:56 50° NE 20:13:59 12° SE
Helios 1A Rocket 3.5 20:06:00 10° N 20:09:02 44° WNW 20:12:02 10° SW
CZ-4B R/B 4.1 20:07:48 10° S 20:13:18 51° W 20:18:45 10° NNW
EP 1 4.4 20:11:11 10° NW 20:13:45 66° NE 20:15:44 16° SE
Cosmos 2233 Rocket 4.2 20:09:15 10° SSW 20:15:26 77° W 20:21:37 10° N
Cosmos 1486 Rocket 4.2 20:14:17 10° NNW 20:19:31 62° ENE 20:23:55 15° SE
Okean-O 2.8 20:15:18 10° S 20:19:39 70° WSW 20:24:02 10° NNW
Cosmos 1758 Rocket 3.6 20:16:59 10° NNW 20:21:24 82° W 20:25:49 10° S
Cosmos 2219 Rocket 3.0 20:16:14 10° NNW 20:21:38 42° NE 20:26:24 13° ESE
Cosmos 909 Rocket 4.1 20:15:32 10° SW 20:21:49 87° NW 20:28:27 10° NE
CZ-2C R/B 3.3 20:21:09 16° ESE 20:22:38 25° ENE 20:24:59 10° N
DNEPR-1 R/B 4.4 20:24:02 10° NW 20:29:29 86° SW 20:34:57 16° SE
Nadezhda 4 Rocket 4.3 20:24:39 10° N 20:30:37 52° ENE 20:35:26 16° SSE
Meteor 1-25 Rocket 4.2 20:25:09 10° N 20:30:51 79° ENE 20:35:42 14° SSE
USA 245 4.3 20:25:40 12° SSE 20:31:11 85° ENE 20:36:41 10° NNW
IRS-1C Rocket 4.2 20:27:08 15° SSE 20:31:32 65° ENE 20:36:47 10° N
Cosmos 1825 Rocket 4.1 20:29:52 10° N 20:34:01 42° ENE 20:36:52 18° SE
Cosmos 1805 3.0 20:31:25 10° N 20:34:39 55° ENE 20:36:34 21° SSE
Cosmos 220 Rocket 3.8 20:33:01 10° SSW 20:37:02 65° ESE 20:41:07 10° NNE
NOSS 3-3 (C) 4.0 20:31:51 10° SW 20:37:11 75° NW 20:43:40 10° NE
Meteor 2-10 4.4 20:32:48 10° N 20:38:31 62° ENE 20:42:50 17° SSE
Cosmos 2322 Rocket 2.2 20:35:50 10° NNW 20:41:33 85° ENE 20:45:49 18° SSE
Cosmos 1602 Rocket 3.6 20:41:02 10° NNW 20:45:22 81° W 20:48:44 16° S
USA 306 3.4 20:43:35 10° WNW 20:46:04 27° N 20:47:38 11° NE
Cosmos 2082 Rocket 3.6 20:41:31 10° WSW 20:46:55 41° NW 20:52:19 10° NNE
NOSS 3-4 (A) 3.9 20:42:26 10° NW 20:49:06 78° SW 20:55:06 18° SSE
NOSS 3-4 (C) 3.9 20:43:05 10° NW 20:49:46 79° SW 20:55:45 19° SSE
Cosmos 1707 4.0 20:52:04 14° E 20:52:04 14° E 20:53:36 10° NE
CZ-4B R/B 2.8 20:49:58 19° S 20:52:14 62° WSW 20:55:43 10° NNW
Cosmos 2058 Rocket 4.5 20:53:53 18° ESE 20:55:22 22° E 20:58:44 10° NE
Cosmos 2151 3.9 20:51:38 10° NNW 20:55:33 43° W 20:59:05 12° SSW
Cosmos 2098 Rocket 3.0 20:53:24 14° S 20:57:23 79° E 21:01:27 10° NNE
Cosmos 1076 Rocket 3.8 20:53:54 10° N 20:58:05 53° ENE 21:00:20 25° SE
Cosmos 44 4.0 20:53:35 10° NW 20:58:55 56° NE 21:02:45 18° ESE
Cosmos 2237 Rocket 4.3 20:55:18 10° N 20:59:16 19° NE 21:03:15 10° E
CZ-4C R/B 4.3 20:56:34 10° WNW 21:00:48 28° NNW 21:06:04 10° NE
Ariane Rocket 3.1 20:59:02 18° S 21:02:47 73° WSW 21:07:53 10° NNW
Cosmos 2278 4.4 21:03:07 10° NW 21:08:35 48° WSW 21:12:36 18° S
SL-16 R/B 3.3 21:07:22 10° NW 21:12:30 35° WSW 21:16:43 14° SSW
Meteor 1-5 Rocket 4.5 21:07:35 10° NNW 21:13:19 71° W 21:17:38 19° S
COSMOS 2428 3.7 21:08:12 10° NNW 21:13:29 37° NE 21:17:37 16° ESE
SPOT 3 Rocket 4.3 21:09:24 15° S 21:13:31 47° W 21:18:29 10° NNW
Cosmos 1763 Rocket 3.5 21:10:53 18° S 21:14:47 61° ESE 21:19:59 10° NNE
USA 186 4.3 21:14:19 10° WSW 21:15:15 11° W 21:16:10 10° WNW
Cosmos 1470 4.4 21:13:07 10° NNE 21:15:16 16° ENE 21:16:07 15° E
ARIANE 5 R/B 4.5 21:15:19 13° E 21:17:46 20° ENE 21:21:03 10° NNE
USA 290 2.1 21:18:07 24° SSW 21:19:51 81° WNW 21:23:00 10° NNE
Cosmos 1606 Rocket 3.5 21:17:15 19° SSW 21:20:16 81° W 21:24:36 10° N
Cosmos 1898 Rocket 4.5 21:16:25 10° NNW 21:21:14 37° NE 21:24:24 19° ESE
Cosmos 990 Rocket 3.9 21:18:03 10° NNW 21:23:14 85° WSW 21:26:04 28° SSE
Cosmos 1464 Rocket 4.1 21:18:41 13° SSW 21:24:15 78° W 21:30:29 10° N
Helios 1B rocket 3.2 21:24:22 25° ESE 21:25:27 30° ENE 21:28:35 10° N
CZ-4B R/B 4.3 21:23:16 17° SSW 21:26:33 42° W 21:31:10 10° NNW
ISS -3.8 21:23:22 10° WNW 21:26:44 82° NNE 21:28:15 30° E
Cosmos 1461 4.4 21:23:29 10° WSW 21:26:52 33° NW 21:30:14 10° NNE
Okean 1 3.1 21:25:54 28° SSW 21:27:41 75° W 21:31:18 10° N
Cosmos 1726 Rocket 3.3 21:25:49 27° S 21:27:56 90° ESE 21:32:01 10° N
BREEZE-M DEB (TANK) 1.6 21:26:23 10° W 21:28:12 45° WSW 21:28:12 45° WSW
Okean O Rocket 4.1 21:31:56 10° WSW 21:34:10 14° W 21:36:25 10° WNW
Cosmos 1536 2.8 21:32:20 10° N 21:35:59 56° ENE 21:36:59 40° SE
Cosmos-2242 2.9 21:37:47 37° SSE 21:39:16 67° E 21:43:23 10° NNE
Cosmos 1092 Rocket 3.9 21:35:40 10° N 21:41:52 82° E 21:45:20 28° SSE
Cosmos 2333 Rocket 3.9 21:38:16 10° NW 21:42:45 24° WSW 21:46:30 13° SSW
KORONAS-FOTON 3.8 21:43:53 45° ESE 21:44:11 46° E 21:47:28 10° NNE
Cosmos 2297 Rocket 3.8 21:46:14 17° ESE 21:47:04 18° E 21:50:43 10° ENE
Cosmos 841 Rocket 4.4 21:47:27 28° SE 21:48:42 32° ESE 21:53:17 10° NE
Cosmos 1833 4.2 21:44:12 11° SSW 21:49:38 82° WNW 21:55:18 10° NNE
Cosmos 2360 Rocket 3.3 21:47:42 10° NW 21:52:44 33° WSW 21:55:44 20° SSW
CZ-2C R/B 4.3 21:52:45 15° WSW 21:53:24 16° W 21:55:13 10° NW
Cosmos 1766 2.9 21:53:06 10° NNW 21:56:18 60° W 21:56:45 52° SW
Cosmos 1842 3.1 21:56:49 46° E 21:56:49 46° E 21:59:45 10° NNE
Cosmos 2322 3.8 21:51:46 10° NNW 21:57:30 75° ENE 22:00:18 31° SE
Cosmos 1975 3.4 21:55:04 10° N 21:58:33 39° ENE 21:59:14 35° ESE
Spot 4 4.5 21:57:15 29° ESE 21:59:14 46° ENE 22:03:50 10° N
Meteor 2-6 Rocket 4.4 21:58:28 32° SSE 22:01:16 63° E 22:07:08 10° NNE
Cosmos 372 Rocket 3.9 21:58:15 10° NNW 22:03:24 86° WSW 22:05:24 38° SSE
Cosmos 2034 Rocket 4.4 21:58:36 17° SSW 22:03:30 62° WNW 22:09:48 10° N
Cosmos 2221 3.1 22:03:18 35° ESE 22:04:00 38° E 22:07:54 10° NNE
Cosmos 2219 Rocket 3.0 22:00:17 10° NW 22:05:34 41° WSW 22:08:05 27° SSW
Cosmos 1271 Rocket 2.5 22:06:21 53° ESE 22:06:25 53° E 22:09:44 10° NNE
SL-08 ROCKET BODY 4.4 22:04:28 10° N 22:10:41 82° E 22:13:38 33° SSE
Cosmos 540 Rocket 4.1 22:07:44 14° SW 22:12:05 55° WNW 22:17:10 10° NNE
Helios 1A 3.1 22:12:51 10° N 22:16:45 64° WNW 22:18:07 37° SW
Cosmos 2279 Rocket 4.0 22:16:39 33° S 22:19:41 77° E 22:25:57 10° NNE
RESURS DK-1 2.1 22:16:04 10° NNW 22:20:03 80° WSW 22:20:45 58° SSE
Aureole 1 Rocket 4.4 22:15:43 10° NNW 22:21:25 54° WSW 22:24:34 30° SSW
Cosmos 1707 3.6 22:23:33 25° W 22:23:56 26° WNW 22:26:24 10° NNW
Cosmos 2322 Rocket 4.1 22:21:07 10° WNW 22:24:51 18° W 22:27:37 13° SW
Cosmos 1634 Rocket 4.1 22:22:33 27° SSW 22:26:06 72° WNW 22:32:20 10° N
Meteor 1-19 Rocket 4.4 22:24:38 36° SSE 22:26:53 62° E 22:32:46 10° NNE
Cosmos 1937 Rocket 3.4 22:23:08 10° NNW 22:28:19 86° ENE 22:30:09 41° SSE
TSX-5 4.2 22:27:11 10° NW 22:29:55 38° WSW 22:29:55 38° WSW
Geosat 4.2 22:27:24 10° NNE 22:32:23 69° NW 22:35:38 22° SW
SL-16 R/B 4.1 22:28:00 10° NNW 22:32:37 24° NE 22:37:12 10° E
Cosmos 2058 Rocket 4.0 22:30:59 26° SW 22:32:57 42° WNW 22:37:06 10° N
CZ-2C R/B 3.6 22:28:31 10° NNE 22:33:01 78° ESE 22:34:15 48° S
Cosmos 468 Rocket 4.3 22:30:13 23° SW 22:33:28 64° WNW 22:38:42 10° NNE
GP-B 3.7 22:31:04 10° NNE 22:35:15 43° E 22:36:11 37° ESE
Meteor 2-9 Rocket 4.1 22:33:57 10° NNW 22:39:21 74° W 22:41:24 39° S
Cosmos 44 4.4 22:35:05 10° NW 22:39:51 33° WSW 22:41:01 30° SW
CZ-2C R/B 3.5 22:39:09 24° ESE 22:41:45 40° ENE 22:46:34 10° N
Lacrosse 4 Rocket 2.9 22:42:44 22° E 22:42:44 22° E 22:45:20 10° ENE
Cosmos 2237 Rocket 2.4 22:38:44 10° NNW 22:44:26 68° ENE 22:47:09 31° SE
SeaSat 1 4.1 22:42:58 10° ESE 22:47:09 29° NE 22:51:21 10° NNW
USA 234 3.6 22:41:34 10° ENE 22:47:44 42° SE 22:49:36 35° S
Cosmos 2266 Rocket 3.9 22:41:50 10° N 22:47:54 83° E 22:50:26 37° SSE
Cosmos 1980 3.7 22:43:00 10° NNW 22:48:42 78° ENE 22:51:12 35° SE
Cosmos 1470 3.3 22:46:15 10° NNW 22:49:19 35° W 22:49:19 35° W
ATLAS 2AS CENTAUR R/B 4.4 22:46:33 10° NW 22:52:34 32° NNE 22:58:32 10° E
Intercosmos 24 3.9 22:49:16 10° N 22:53:03 54° ENE 22:53:29 50° ESE
ARIANE 5 R/B 2.9 22:52:41 46° SSW 22:53:41 58° W 22:58:07 10° NNW
ALOS 2 2.7 22:54:46 51° SSW 22:55:43 67° WSW 23:00:06 10° NNW
Cosmos 2227 Rocket 3.4 22:55:49 24° ESE 22:57:02 26° ESE 23:01:39 10° NE
COSMOS 2428 3.1 22:52:26 10° NW 22:57:52 48° WSW 22:59:35 36° SSW
Helios 1B rocket 3.7 22:58:18 22° W 22:58:28 22° W 23:01:17 10° NW
Meteor 2-4 Rocket 4.2 23:00:13 35° SE 23:01:57 46° E 23:07:14 10° NNE
BlueWalker 3 3.9 23:05:21 16° E 23:05:21 16° E 23:06:18 10° E
Cosmos 1898 Rocket 4.3 22:58:27 10° NW 23:03:14 39° WSW 23:04:34 33° SW
ISS -1.5 23:00:18 10° W 23:01:11 16° W 23:01:11 16° W
Cosmos 2263 Rocket 3.8 23:03:56 18° ESE 23:05:12 19° E 23:09:03 10° NE
CZ-2C R/B 3.5 23:01:38 10° NNE 23:07:21 61° E 23:09:26 39° SSE
Meteor 1-11 Rocket 3.8 23:02:37 10° NNW 23:08:14 67° W 23:10:10 40° SSW
Cosmos 1766 Rocket 3.6 23:04:54 10° N 23:09:12 66° ENE 23:10:08 50° SE
SAR-Lupe-2 3.8 23:10:57 51° W 23:10:57 51° W 23:14:00 10° NNW
Meteor 1-10 Rocket 4.4 23:11:29 36° SSW 23:14:02 75° WNW 23:20:01 10° N
Cosmos 1238 Rocket 3.0 23:14:04 55° SE 23:14:38 62° E 23:19:00 10° NNE
PSLV R/B 3.7 23:11:51 10° N 23:16:08 70° WNW 23:17:16 47° SW
Cosmos 1655 Rocket 4.0 23:15:08 10° N 23:21:25 76° E 23:24:15 35° SSE
Cosmos 192 4.4 23:17:36 10° NNW 23:22:34 75° ENE 23:24:20 40° SE
Cosmos 1814 Rocket 4.5 23:21:58 38° SE 23:23:15 46° ESE 23:28:16 10° NE
Alouette 2 Rocket 3.5 23:23:14 10° NNW 23:27:04 83° ENE 23:28:18 48° SSE
Meteor 1-27 Rocket 3.7 23:25:49 39° SSW 23:28:06 86° WNW 23:33:52 10° NNE
Meteor 2-10 Rocket 3.8 23:24:12 10° N 23:29:44 70° ENE 23:32:13 35° SSE
Cosmos 841 Rocket 4.4 23:27:23 23° WSW 23:30:19 44° WNW 23:35:22 10° NNE
Cosmos 2297 Rocket 2.1 23:27:59 37° SSW 23:30:20 86° WNW 23:36:02 10° NNE
SL-14 R/B 4.1 23:39:49 35° ESE 23:40:18 37° E 23:43:49 10° NNE
Cosmos 2221 4.2 23:39:35 19° W 23:41:09 24° WNW 23:44:36 10° NNW
Cosmos 158 Rocket 4.0 23:39:40 43° S 23:41:23 72° ESE 23:46:42 10° NNE
CZ-4C R/B 3.8 23:38:30 10° NNE 23:41:44 38° E 23:41:47 38° ESE
ACS3 Solar Sail 2.4 23:37:47 10° NNE 23:43:30 45° E 23:46:10 28° SSE
MetOp-A 4.3 23:42:38 40° SW 23:43:44 48° W 23:48:15 10° NNW
Landsat 5 3.4 23:43:46 10° NNE 23:47:50 68° ESE 23:48:28 57° SSE
